FW8389 Weather Reports


time (UTC)temp
F
wind
direction
speed
knots
gust
knots
rain 1hr
in
rain 24hr
in
rain mn
in
humidity
%
barometer
mb
20260504001803 46 195 6.1 9.6 0.03 0.06 0.06 90 1003.4
20260504000924 46 196 5.2 7.8 0.03 0.06 0.06 91 1003.4
20260504000003 46 205 5.2 8.7 0.03 0.06 0.06 91 1003.4
20260503235403 46 206 6.1 9.6 0.03 0.06 0.06 91 1003.6
20260503234503 45 206 5.2 8.7 0.03 0.05 0.05 91 1003.6
20260503233603 46 204 5.2 8.7 0.02 0.04 0.04 91 1003.6
20260503232703 46 219 4.3 7.8 0.01 0.03 0.03 90 1003.5
20260503231803 46 221 6.1 11.3 0.01 0.03 0.03 90 1003.6
20260503230903 46 214 7.8 12.2 0.01 0.04 0.03 89 1003.6
20260503230003 46 209 8.7 12.2 0.01 0.04 0.03 89 1003.6
20260503225403 46 207 8.7 13.0 0.01 0.04 0.03 89 1003.6
20260503224503 46 209 9.6 13.0 0.00 0.03 0.02 88 1003.6
20260503223603 46 216 9.6 15.6 0.00 0.03 0.02 88 1003.7
20260503222703 47 214 9.6 18.2 0.00 0.03 0.02 87 1003.7
20260503221803 47 215 9.6 18.2 0.00 0.03 0.02 86 1003.6
20260503220924 47 209 9.6 14.8 0.00 0.03 0.02 87 1003.6
20260503220024 46 204 8.7 16.5 0.00 0.03 0.02 88 1003.6
20260503215403 46 204 7.8 17.4 0.00 0.03 0.02 89 1003.5
20260503214503 46 203 8.7 13.9 0.00 0.03 0.02 89 1003.6
20260503213603 45 201 8.7 13.9 0.00 0.03 0.02 90 1003.6
20260503212703 45 199 8.7 14.8 0.00 0.03 0.02 90 1003.6
20260503211824 45 196 8.7 13.0 0.00 0.03 0.02 90 1003.7
20260503210903 44 199 8.7 13.9 0.00 0.03 0.02 90 1003.6
20260503210003 44 197 9.6 14.8 0.02 0.03 0.02 90 1003.7
20260503205403 44 196 10.4 16.5 0.02 0.03 0.02 90 1003.7
20260503204503 44 194 7.8 18.2 0.02 0.03 0.02 90 1003.8
20260503203603 43 202 6.1 11.3 0.02 0.03 0.02 90 1004.0
20260503202703 43 194 7.8 13.0 0.02 0.03 0.02 89 1004.1
20260503201803 43 195 8.7 14.8 0.02 0.03 0.02 88 1004.1
20260503200903 44 210 9.6 16.5 0.02 0.03 0.02 87 1004.3
20260503200003 45 239 8.7 14.8 0.00 0.01 0.00 84 1004.7
20260503195403 45 247 11.3 20.9 0.00 0.01 0.00 81 1004.8
20260503194503 48 250 9.6 18.2 0.00 0.01 0.00 73 1004.7
20260503193603 48 261 5.2 12.2 0.00 0.01 0.00 72 1004.4
20260503192703 48 263 7.8 13.0 0.00 0.01 0.00 70 1004.4
20260503191803 49 257 8.7 15.6 0.00 0.01 0.00 68 1004.6
20260503190903 48 246 7.0 20.0 0.00 0.01 0.00 69 1004.8
20260503190003 48 251 9.6 19.1 0.00 0.01 0.00 68 1005.0
20260503185424 49 242 9.6 16.5 0.00 0.01 0.00 65 1005.1
20260503184503 51 258 11.3 20.0 0.00 0.01 0.00 59 1005.0
20260503183603 52 215 8.7 19.1 0.00 0.01 0.00 56 1004.8
20260503182703 52 217 8.7 18.2 0.00 0.01 0.00 52 1004.5
20260503181803 53 257 9.6 20.0 0.00 0.01 0.00 53 1004.8
20260503180903 53 276 10.4 20.9 0.00 0.01 0.00 53 1004.9
20260503180003 53 233 7.8 20.9 0.00 0.01 0.00 51 1005.2
20260503175403 52 222 6.1 13.9 0.00 0.01 0.00 51 1005.1
20260503174503 52 205 8.7 13.9 0.00 0.01 0.00 52 1005.1
20260503173603 53 205 7.0 12.2 0.00 0.01 0.00 51 1005.5
20260503172703 52 215 7.0 15.6 0.00 0.01 0.00 50 1005.5
20260503171803 52 206 6.1 11.3 0.00 0.01 0.00 49 1005.7
20260503170903 51 214 6.1 11.3 0.00 0.01 0.00 48 1005.8
20260503150903 49 213 6.1 11.3 0.00 0.01 0.00 44 1006.9
20260503130903 42 160 1.7 4.3 0.00 0.02 0.00 60 1008.2
20260503080903 34 186 2.6 5.2 0.00 0.03 0.00 65 1009.2
20260503072703 34 170 1.7 5.2 0.00 0.03 0.00 62 1009.4
20260503071803 33 153 1.7 4.3 0.00 0.03 0.00 61 1009.4
20260503070924 33 148 1.7 2.6 0.00 0.03 0.00 61 1009.4
20260503054503 34 189 1.7 3.5 0.00 0.03 0.00 56 1010.0
20260503053603 34 195 1.7 2.6 0.00 0.03 0.00 56 1010.0
20260503052703 34 196 1.7 2.6 0.00 0.03 0.00 56 1010.0
20260503051803 34 201 1.7 2.6 0.00 0.03 0.00 56 1010.1
20260503050903 34 202 1.7 2.6 0.00 0.03 0.00 56 1010.2
20260503050003 34 202 0.9 3.5 0.00 0.03 0.00 56 1010.3
20260503045403 34 202 0.0 0.9 0.00 0.03 0.00 55 1010.3
20260503044503 34 0 0.0 0.0 0.00 0.03 0.00 56 1010.4
20260503043603 34 0 0.0 0.0 0.00 0.03 0.00 56 1010.5
20260503042703 34 0 0.0 0.0 0.00 0.03 0.00 55 1010.5
20260503041803 34 0 0.0 0.0 0.00 0.03 0.00 54 1010.5
20260503040903 34 0 0.0 0.0 0.00 0.03 0.00 55 1010.6
20260503040003 34 0 0.0 0.0 0.00 0.03 0.00 55 1010.6
20260503035403 34 0 0.0 0.0 0.00 0.03 0.03 55 1010.6
20260503034503 34 0 0.0 0.0 0.00 0.03 0.03 55 1010.7
20260503033603 34 0 0.0 0.0 0.00 0.03 0.03 54 1010.7
20260503032724 34 0 0.0 0.0 0.00 0.03 0.03 54 1010.8
20260503031803 34 0 0.0 0.0 0.00 0.03 0.03 54 1010.8
20260503030903 34 0 0.0 0.0 0.00 0.03 0.03 53 1010.9
20260503030003 35 203 0.0 1.7 0.00 0.03 0.03 53 1010.8
20260503025403 35 203 0.0 1.7 0.00 0.03 0.03 53 1011.0
20260503024503 35 203 0.9 1.7 0.00 0.03 0.03 52 1011.1
20260503023603 35 203 1.7 3.5 0.00 0.03 0.03 52 1011.1
20260503022703 36 207 1.7 5.2 0.00 0.03 0.03 50 1011.1
20260503021803 36 226 2.6 8.7 0.00 0.03 0.03 50 1011.2
20260503020903 36 275 1.7 7.8 0.00 0.03 0.03 50 1011.2
20260503020003 36 278 0.9 2.6 0.00 0.03 0.03 49 1011.0
20260503015403 36 279 0.9 3.5 0.00 0.03 0.03 49 1011.2
20260503014503 36 280 0.0 0.9 0.00 0.03 0.03 50 1011.1
20260503013603 36 280 0.9 2.6 0.00 0.03 0.03 49 1011.0
20260503012703 36 280 1.7 3.5 0.00 0.03 0.03 50 1011.0
20260503011803 36 273 2.6 5.2 0.00 0.03 0.03 50 1011.0
20260503010924 36 267 4.3 7.0 0.00 0.03 0.03 50 1010.8
20260503010003 37 269 5.2 9.6 0.00 0.03 0.03 49 1010.7
20260503005403 37 270 5.2 9.6 0.00 0.03 0.03 49 1010.8
20260503004503 37 274 3.5 7.0 0.00 0.03 0.03 47 1010.8
20260503003624 38 287 4.3 7.8 0.00 0.03 0.03 46 1010.8
20260503002703 38 292 5.2 10.4 0.00 0.03 0.03 45 1010.7